TimeMDT,TemperatureF,Dew PointF,Humidity,Sea Level PressureIn,VisibilityMPH,Wind Direction,Wind SpeedMPH,Gust SpeedMPH,PrecipitationIn,Events,Conditions,WindDirDegrees,DateUTC
12:52 AM,52.0,50.0,93,30.10,-9999.0,Calm,Calm,-,N/A,,Unknown,0,2013-06-22 06:52:00
1:52 AM,51.1,48.9,92,30.09,-9999.0,SSW,3.5,-,N/A,,Unknown,200,2013-06-22 07:52:00
2:52 AM,51.1,48.9,92,30.10,-9999.0,Calm,Calm,-,N/A,,Unknown,0,2013-06-22 08:52:00
3:52 AM,51.1,48.9,92,30.12,-9999.0,Calm,Calm,-,N/A,,Unknown,0,2013-06-22 09:52:00
4:52 AM,51.1,48.9,92,30.10,-9999.0,Calm,Calm,-,N/A,,Unknown,0,2013-06-22 10:52:00
5:52 AM,51.1,48.9,92,30.11,-9999.0,Calm,Calm,-,N/A,,Unknown,0,2013-06-22 11:52:00
6:52 AM,51.1,48.9,92,30.12,-9999.0,Calm,Calm,-,N/A,,Unknown,0,2013-06-22 12:52:00
7:52 AM,52.0,48.9,89,30.12,-9999.0,Calm,Calm,-,N/A,,Unknown,0,2013-06-22 13:52:00
8:52 AM,53.1,50.0,89,30.12,-9999.0,Calm,Calm,-,N/A,,Unknown,0,2013-06-22 14:52:00
9:52 AM,57.0,51.1,81,30.10,-9999.0,Calm,Calm,-,N/A,,Unknown,0,2013-06-22 15:52:00
10:52 AM,62.1,50.0,65,30.08,-9999.0,Variable,3.5,-,N/A,,Unknown,0,2013-06-22 16:52:00
11:52 AM,63.0,48.9,60,30.07,-9999.0,South,4.6,-,N/A,,Unknown,170,2013-06-22 17:52:00
12:52 PM,66.0,48.0,52,30.05,-9999.0,Calm,Calm,-,N/A,,Unknown,0,2013-06-22 18:52:00
1:52 PM,66.9,46.9,49,30.04,-9999.0,Calm,Calm,-,N/A,,Unknown,0,2013-06-22 19:52:00
2:52 PM,71.1,48.0,44,30.01,-9999.0,South,4.6,-,N/A,,Unknown,180,2013-06-22 20:52:00
3:52 PM,72.0,50.0,46,29.99,-9999.0,South,5.8,-,N/A,,Unknown,170,2013-06-22 21:52:00
4:52 PM,71.1,51.1,49,29.97,-9999.0,Calm,Calm,-,N/A,,Unknown,0,2013-06-22 22:52:00
5:52 PM,73.0,48.9,42,29.94,-9999.0,Calm,Calm,-,N/A,,Unknown,0,2013-06-22 23:52:00
6:52 PM,64.9,46.9,52,29.94,-9999.0,Calm,Calm,-,N/A,,Unknown,0,2013-06-23 00:52:00
7:52 PM,62.1,50.0,65,29.94,-9999.0,Calm,Calm,-,N/A,,Unknown,0,2013-06-23 01:52:00
8:52 PM,57.9,51.1,78,29.95,-9999.0,Calm,Calm,-,N/A,,Unknown,0,2013-06-23 02:52:00
9:52 PM,55.9,50.0,80,29.96,-9999.0,Calm,Calm,-,N/A,,Unknown,0,2013-06-23 03:52:00
10:52 PM,53.1,48.9,86,29.97,-9999.0,Calm,Calm,-,N/A,,Unknown,0,2013-06-23 04:52:00
11:52 PM,52.0,48.9,89,29.98,-9999.0,Calm,Calm,-,N/A,,Unknown,0,2013-06-23 05:52:00